EW4055 Weather Reports


Display with metric or nautical units.
time (UTC)temp
F
wind
direction
speed
MPH
gust
MPH
rain 1hr
in
rain 24hr
in
rain mn
in
humidity
%
barometer
mb
20260903073447 78 316 4.0 10.0 0.00 0.00 0.00 68 1019.3
20260903073246 78 326 3.0 12.0 0.00 0.00 0.00 69 1019.2
20260903072229 77 305 4.0 9.0 0.00 0.00 0.00 69 1019.2
20260903070445 76 351 6.0 9.0 0.00 0.00 0.00 68 1019.2
20260903070305 76 326 4.0 9.0 0.00 0.00 0.00 69 1019.2
20260903065053 74 307 4.0 7.0 0.00 0.00 0.00 73 1019.1
20260903064624 75 306 4.0 10.0 0.00 0.00 0.00 70 1019.2
20260903062450 72 293 2.0 4.0 0.00 0.00 0.00 75 1019.2
20260903061445 72 281 1.0 4.0 0.00 0.00 0.00 75 1019.1
20260903061216 71 289 2.0 4.0 0.00 0.00 0.00 75 1019.1
20260903055446 71 281 3.0 5.0 0.00 0.00 0.00 76 1019.0
20260903054447 70 300 3.0 4.0 0.00 0.00 0.00 76 1018.9
20260903053446 70 276 2.0 4.0 0.00 0.00 0.00 76 1018.9
20260903052444 70 290 2.0 4.0 0.00 0.00 0.00 76 1018.8
20260903051450 70 282 3.0 5.0 0.00 0.00 0.00 76 1018.6
20260903050443 70 285 3.0 5.0 0.00 0.00 0.00 75 1018.5
20260903045445 70 216 3.0 4.0 0.00 0.00 0.00 76 1018.3
20260903044448 70 243 2.0 3.0 0.00 0.00 0.00 76 1018.3
20260903043445 70 299 2.0 3.0 0.00 0.00 0.00 76 1018.3
20260903042446 70 310 2.0 3.0 0.00 0.00 0.00 75 1018.3
20260903041445 71 299 2.0 4.0 0.00 0.00 0.00 75 1018.2
20260903040443 71 282 4.0 5.0 0.00 0.00 0.00 75 1018.1
20260903035444 71 296 4.0 9.0 0.00 0.00 0.00 75 1018.2
20260903034443 71 286 5.0 6.0 0.00 0.00 0.00 74 1018.1
20260903033443 71 279 2.0 5.0 0.00 0.00 0.00 74 1018.2
20260903032443 71 281 3.0 5.0 0.00 0.00 0.00 74 1018.2
20260903031441 71 282 3.0 4.0 0.00 0.00 0.00 74 1018.2
20260903030924 71 281 3.0 4.0 0.00 0.00 0.00 74 1018.3
20260903030607 71 278 3.0 4.0 0.00 0.00 0.00 74 1018.3
20260903024439 71 275 3.0 4.0 0.00 0.00 0.00 74 1018.3
20260903023448 72 269 3.0 4.0 0.00 0.00 0.00 73 1018.3
20260903022440 72 281 2.0 3.0 0.00 0.00 0.00 73 1018.2
20260903021441 72 276 2.0 5.0 0.00 0.00 0.00 73 1018.3
20260903021150 71 278 2.0 4.0 0.00 0.00 0.00 74 1018.2
20260903015442 71 288 3.0 4.0 0.00 0.00 0.00 74 1018.2
20260903014441 71 285 3.0 4.0 0.00 0.00 0.00 74 1018.3
20260903013439 71 292 3.0 5.0 0.00 0.00 0.00 74 1018.3
20260903012438 71 288 4.0 5.0 0.00 0.00 0.00 74 1018.3
20260903011441 71 279 3.0 4.0 0.00 0.00 0.00 74 1018.2
20260903010437 71 283 3.0 6.0 0.00 0.00 0.00 74 1018.2
20260903005439 72 268 3.0 6.0 0.00 0.00 0.00 73 1018.1
20260903004439 72 271 3.0 5.0 0.00 0.00 0.00 73 1018.2
20260903004156 72 292 2.0 6.0 0.00 0.00 0.00 73 1018.1
20260903002435 72 224 2.0 4.0 0.00 0.00 0.00 73 1018.0
20260903001437 72 282 2.0 5.0 0.00 0.00 0.00 72 1018.1
20260903000439 72 266 4.0 5.0 0.00 0.00 0.00 72 1018.1
20260902235435 72 259 2.0 4.0 0.00 0.00 0.00 73 1018.1
20260902235233 72 240 2.0 4.0 0.00 0.00 0.00 72 1018.1
20260902233436 73 275 2.0 5.0 0.00 0.00 0.00 71 1018.2
20260902232436 73 283 2.0 4.0 0.00 0.00 0.00 71 1018.3
20260902231437 73 283 1.0 3.0 0.00 0.00 0.00 70 1018.3
20260902230435 73 281 3.0 5.0 0.00 0.00 0.00 70 1018.3
20260902230314 74 289 3.0 4.0 0.00 0.00 0.00 70 1018.4
20260902224436 74 250 1.0 3.0 0.00 0.00 0.00 70 1018.3
20260902223434 74 295 1.0 3.0 0.00 0.00 0.00 69 1018.4
20260902222436 74 279 1.0 3.0 0.00 0.00 0.00 69 1018.5
20260902221436 75 338 0.0 2.0 0.00 0.00 0.00 68 1018.5
20260902220434 74 330 2.0 4.0 0.00 0.00 0.00 69 1018.5
20260902220314 74 323 2.0 4.0 0.00 0.00 0.00 69 1018.3
20260902214434 74 283 3.0 4.0 0.00 0.00 0.00 69 1018.4
20260902213431 74 272 3.0 5.0 0.00 0.00 0.00 69 1018.3
20260902212431 74 292 4.0 5.0 0.00 0.00 0.00 69 1018.2
20260902212207 74 281 2.0 4.0 0.00 0.00 0.00 69 1018.2
20260902211205 74 289 3.0 4.0 0.00 0.00 0.00 69 1018.2
20260902210311 74 295 2.0 4.0 0.00 0.00 0.00 69 1018.1
20260902204434 75 279 2.0 5.0 0.00 0.00 0.00 68 1018.1
20260902203435 75 272 2.0 3.0 0.00 0.00 0.00 68 1018.0
20260902202434 75 272 2.0 3.0 0.00 0.00 0.00 69 1018.0
20260902201431 75 281 2.0 3.0 0.00 0.00 0.00 69 1018.0
20260902200431 75 281 2.0 4.0 0.00 0.00 0.00 68 1018.0
20260902195433 75 300 2.0 2.0 0.00 0.00 0.00 69 1018.2
20260902194433 75 10 0.0 2.0 0.00 0.00 0.00 69 1018.2
20260902193428 75 10 1.0 2.0 0.00 0.00 0.00 69 1018.1
20260902192430 76 10 1.0 2.0 0.00 0.00 0.00 69 1018.2
20260902191430 76 10 0.0 2.0 0.00 0.00 0.00 69 1018.2
20260902191157 77 10 0.0 2.0 0.00 0.00 0.00 68 1018.3
20260902185430 77 10 0.0 1.0 0.00 0.00 0.00 69 1018.2
20260902185135 77 10 0.0 2.0 0.00 0.00 0.00 69 1018.1
20260902183427 77 10 2.0 4.0 0.00 0.00 0.00 68 1018.1
20260902182832 78 59 2.0 2.0 0.00 0.00 0.00 67 1017.8
20260902182532 77 27 2.0 3.0 0.00 0.00 0.00 67 1017.9
20260902180433 78 59 1.0 2.0 0.00 0.00 0.00 67 1017.7
20260902175429 78 59 2.0 3.0 0.00 0.00 0.00 66 1017.7
20260902174428 79 59 2.0 3.0 0.00 0.00 0.00 65 1017.6
20260902174052 79 75 2.0 4.0 0.00 0.00 0.00 62 1017.4
20260902173954 80 69 2.0 5.0 0.00 0.00 0.00 60 1017.4
20260902173943 79 59 2.0 5.0 0.00 0.00 0.00 62 1017.2
20260902173606 79 59 1.0 3.0 0.00 0.00 0.00 63 1017.5
20260902165428 80 87 3.0 5.0 0.00 0.00 0.00 59 1017.4
20260902164845 81 51 3.0 6.0 0.00 0.00 0.00 57 1017.7
20260902164543 80 80 3.0 5.0 0.00 0.00 0.00 58 1017.6
20260902163200 81 25 4.0 6.0 0.00 0.00 0.00 57 1017.7
20260902161428 81 49 3.0 5.0 0.00 0.00 0.00 56 1017.8
20260902161219 82 7 2.0 5.0 0.00 0.00 0.00 56 1017.7
20260902155423 82 90 3.0 7.0 0.00 0.00 0.00 56 1017.7
20260902154424 83 18 4.0 9.0 0.00 0.00 0.00 55 1017.6
20260902153426 82 58 4.0 7.0 0.00 0.00 0.00 54 1017.5
20260902152430 82 35 4.0 10.0 0.00 0.00 0.00 54 1017.3
20260902152218 82 51 7.0 12.0 0.00 0.00 0.00 53 1017.3
20260902150427 83 353 6.0 12.0 0.00 0.00 0.00 54 1017.2
20260902145425 83 71 5.0 14.0 0.00 0.00 0.00 55 1017.2
20260902144427 84 0 5.0 13.0 0.00 0.00 0.00 55 1017.3
20260902143422 84 18 5.0 14.0 0.00 0.00 0.00 54 1017.3
20260902142857 84 25 8.0 14.0 0.00 0.00 0.00 55 1017.6
20260902142547 84 38 9.0 13.0 0.00 0.00 0.00 55 1017.6
20260902141226 84 80 8.0 14.0 0.00 0.00 0.00 56 1017.6
20260902135427 85 20 8.0 15.0 0.00 0.00 0.00 56 1017.7
20260902134424 85 100 8.0 14.0 0.00 0.00 0.00 57 1017.7
20260902133425 85 35 7.0 13.0 0.00 0.00 0.00 59 1017.8
20260902132421 85 54 6.0 17.0 0.00 0.00 0.00 58 1018.0
20260902131422 85 31 8.0 15.0 0.00 0.00 0.00 58 1018.0
20260902130421 85 62 7.0 17.0 0.00 0.00 0.00 59 1018.0
20260902125420 85 99 6.0 16.0 0.00 0.00 0.00 59 1018.1
20260902124424 85 56 9.0 18.0 0.00 0.00 0.00 59 1018.2
20260902124158 86 358 8.0 16.0 0.00 0.00 0.00 57 1018.2
20260902122422 85 48 9.0 16.0 0.00 0.00 0.00 57 1018.4
20260902121423 86 309 9.0 16.0 0.00 0.00 0.00 57 1018.4
20260902120422 86 63 10.0 15.0 0.00 0.00 0.00 57 1018.4
20260902115422 85 66 9.0 17.0 0.00 0.00 0.00 57 1018.4
20260902115156 87 47 8.0 15.0 0.00 0.00 0.00 54 1018.4
20260902113421 89 10 4.0 12.0 0.00 0.00 0.00 52 1018.6
20260902112420 89 8 4.0 7.0 0.00 0.00 0.00 47 1018.7
20260902111421 89 305 3.0 10.0 0.00 0.00 0.00 47 1018.8
20260902111145 87 353 2.0 4.0 0.00 0.00 0.00 52 1018.8
20260902105420 87 72 3.0 5.0 0.00 0.00 0.00 51 1018.9
20260902104418 86 338 2.0 5.0 0.00 0.00 0.00 51 1019.1
20260902103419 86 345 4.0 7.0 0.00 0.00 0.00 53 1019.1
20260902102420 87 14 4.0 9.0 0.00 0.00 0.00 53 1019.2
20260902101419 86 4 1.0 7.0 0.00 0.00 0.00 54 1019.2
20260902100416 87 18 3.0 5.0 0.00 0.00 0.00 54 1019.4
20260902095422 86 295 4.0 10.0 0.00 0.00 0.00 54 1019.5
20260902094417 86 320 3.0 6.0 0.00 0.00 0.00 56 1019.5
20260902093418 85 312 3.0 10.0 0.00 0.00 0.00 57 1019.5
20260902092414 85 72 5.0 9.0 0.00 0.00 0.00 58 1019.4
20260902091418 84 0 4.0 6.0 0.00 0.00 0.00 59 1019.4
20260902090415 84 330 2.0 5.0 0.00 0.00 0.00 60 1019.3
20260902090308 83 300 2.0 7.0 0.00 0.00 0.00 62 1019.3
20260902084419 83 317 2.0 5.0 0.00 0.00 0.00 63 1019.3
20260902083415 82 296 4.0 6.0 0.00 0.00 0.00 65 1019.2
20260902082920 80 336 4.0 7.0 0.00 0.00 0.00 68 1019.1
20260902082546 81 316 4.0 6.0 0.00 0.00 0.00 68 1019.2
20260902080416 80 321 4.0 6.0 0.00 0.00 0.00 69 1018.9
20260902075412 80 0 3.0 7.0 0.00 0.00 0.00 68 1019.1
20260902074414 80 313 4.0 9.0 0.00 0.00 0.00 67 1019.1